Weather History for Miami, FL

Change the Weather History Date:

Sunday, December 8, 2013

  Actual Average Record
Temperature  
Mean Temperature 78 °F 72 °F  
Max Temperature 83 °F 79 °F 86 °F (1942)
Min Temperature 72 °F 65 °F 38 °F (1937)
Degree Days  
Heating Degree Days 0 1  
Month to date heating degree days 0 4  
Since 1 July heating degree days 2 7  
Cooling Degree Days 13 7  
Month to date cooling degree days 78 61  
Year to date cooling degree days 4619 4433  
Growing Degree Days 27 (Base 50)    
Moisture  
Dew Point 68 °F    
Average Humidity 73    
Maximum Humidity 87    
Minimum Humidity 58    
Precipitation  
Precipitation 0.06 in 0.07 in 1.98 in (1987)
Month to date precipitation 0.40 0.56  
Year to date precipitation 66.15 60.42  
Snow  
Snow 0.00 in - - ()
Month to date snowfall 0.0  
Since 1 July snowfall 0.0  
Snow Depth 0.00 in    
Sea Level Pressure  
Sea Level Pressure 30.16 in    
Wind  
Wind Speed 12 mph (ESE)    
Max Wind Speed 20 mph    
Max Gust Speed 24 mph    
Visibility 10 miles    
Events Rain    
T = Trace of Precipitation, MM = Missing Value Source: NWS Daily Summary

Daily Weather History Graph

Daily Weather History Graph

Search for Another Location

Airport:

Trip Planner

Search our weather history database for the weather conditions in past years. The results will help you decide how hot, cold, wet, or windy it might be!

Date:

Astronomy

Dec. 08, 2013 Rise Set
Actual Time 6:55 AM EST 5:30 PM EST
Civil Twilight 6:30 AM EST 5:55 PM EST
Nautical Twilight 6:02 AM EST 6:24 PM EST
Astronomical Twilight 5:34 AM EST 6:52 PM EST
Moon 11:42 AM EST (12/8) 11:48 PM EST (12/8)
Length of Visible Light 11h 24m
Length of Day
10h 34m
Waxing Crescent, 40% of the Moon is Illuminated
Dec 8
Waxing Crescent
Dec 9
First Quarter
Dec 17
Full
Dec 25
Last Quarter
Jan 1
New

Hourly Weather History & Observations

Time (EST) Temp. Heat Index Dew Point Humidity Pressure Visibility Wind Dir Wind Speed Gust Speed Precip Events Conditions
12:53 AM 75.0 °F - 71.1 °F 87% 30.17 in 10.0 mi East 11.5 mph - 0.00 in   Mostly Cloudy
1:53 AM 73.0 °F - 71.1 °F 93% 30.16 in 10.0 mi ENE 9.2 mph - 0.06 in Rain Light Rain
2:53 AM 73.9 °F - 70.0 °F 87% 30.15 in 10.0 mi East 5.8 mph - 0.00 in   Mostly Cloudy
3:53 AM 75.0 °F - 70.0 °F 84% 30.14 in 10.0 mi East 10.4 mph - N/A   Overcast
4:53 AM 75.0 °F - 68.0 °F 79% 30.14 in 10.0 mi East 11.5 mph - N/A   Mostly Cloudy
5:53 AM 73.0 °F - 66.0 °F 79% 30.16 in 10.0 mi East 6.9 mph - N/A   Clear
6:53 AM 73.9 °F - 66.9 °F 79% 30.17 in 10.0 mi East 8.1 mph - N/A   Partly Cloudy
7:53 AM 75.9 °F - 66.9 °F 74% 30.19 in 10.0 mi East 10.4 mph - N/A   Partly Cloudy
8:53 AM 78.1 °F - 69.1 °F 74% 30.22 in 10.0 mi East 11.5 mph - N/A   Scattered Clouds
9:53 AM 79.0 °F - 68.0 °F 69% 30.22 in 10.0 mi ESE 13.8 mph - N/A   Scattered Clouds
10:53 AM 81.0 °F 83.8 °F 68.0 °F 65% 30.20 in 10.0 mi ESE 15.0 mph - N/A   Scattered Clouds
11:53 AM 82.0 °F 84.9 °F 68.0 °F 62% 30.19 in 10.0 mi East 16.1 mph 21.9 mph N/A   Mostly Cloudy
12:00 PM 82.4 °F 85.4 °F 68.0 °F 62% 30.18 in 10.0 mi East 18.4 mph - N/A   Mostly Cloudy
12:06 PM 82.4 °F 84.6 °F 66.2 °F 58% 30.18 in 10.0 mi ESE 17.3 mph 24.2 mph N/A   Mostly Cloudy
12:53 PM 82.0 °F 84.5 °F 66.9 °F 60% 30.16 in 10.0 mi ESE 16.1 mph - N/A   Mostly Cloudy
1:53 PM 81.0 °F 83.3 °F 66.9 °F 62% 30.14 in 10.0 mi East 11.5 mph - N/A   Mostly Cloudy
2:53 PM 80.1 °F 82.7 °F 68.0 °F 67% 30.14 in 10.0 mi ESE 12.7 mph 19.6 mph N/A   Mostly Cloudy
3:53 PM 79.0 °F - 66.9 °F 66% 30.13 in 10.0 mi SE 11.5 mph 20.7 mph N/A   Scattered Clouds
4:53 PM 79.0 °F - 68.0 °F 69% 30.14 in 10.0 mi ESE 13.8 mph 19.6 mph N/A   Scattered Clouds
5:53 PM 78.1 °F - 68.0 °F 71% 30.13 in 10.0 mi East 12.7 mph - N/A   Scattered Clouds
6:53 PM 77.0 °F - 68.0 °F 74% 30.15 in 10.0 mi East 10.4 mph - N/A   Scattered Clouds
7:53 PM 77.0 °F - 69.1 °F 76% 30.16 in 10.0 mi East 9.2 mph - N/A   Partly Cloudy
8:53 PM 78.1 °F - 70.0 °F 76% 30.17 in 10.0 mi East 12.7 mph - 0.00 in Rain Light Rain
9:53 PM 77.0 °F - 71.1 °F 82% 30.17 in 10.0 mi ESE 11.5 mph - 0.00 in Rain Light Rain
10:53 PM 77.0 °F - 70.0 °F 79% 30.17 in 10.0 mi ESE 13.8 mph 19.6 mph 0.00 in   Overcast
11:53 PM 78.1 °F - 69.1 °F 74% 30.16 in 10.0 mi ESE 12.7 mph - N/A   Overcast